RH
4 3 3 6 5 4 5 6 9 8 9 9 10 13 14 15 15 20 21 20 17 21 24 30 35 30 20 35 38 31 34 40 40 37 32 28 37 39 35 34 39 41 48 50 60
4 3 4 5 5 5 6 6 8 9 8 9 10 12 14 14 14 14 16 18 21 24 25 24 31 35 19 30 31 30 37 39 39 37 29 24 27 33 37 35 35 38 41 46 53
4 4 5 5 5 6 7 6 7 8 7 8 9 9 11 16 11 11 14 16 20 21 25 27 30 34 29 27 33 42 42 39 31 28 24 25 30 33 35 35 37 40 40 40 47
4 5 5 5 5 5 6 5 6 6 7 7 8 8 8 11 13 7 11 13 14 15 20 28 26 34 33 29 24 27 32 33 30 26 25 26 30 31 32 33 34 35 38 39 41
5 5 5 5 6 6 5 5 5 5 5 6 7 7 6 7 8 6 5 6 7 12 18 27 26 29 29 29 28 30 31 30 32 32 33 32 33 32 32 32 33 37 39 40 41
5 5 5 5 5 5 5 5 5 6 7 7 8 7 7 6 6 6 5 6 7 9 10 12 19 24 26 28 26 25 27 30 31 31 29 28 30 30 29 30 31 31 34 38 39
5 5 5 5 5 5 6 6 5 5 6 7 7 6 6 6 6 6 6 6 7 8 7 7 7 18 21 21 23 24 22 24 25 21 20 19 20 19 21 24 23 25 23 20 20
5 5 5 5 5 5 6 5 5 6 6 6 6 6 5 6 6 5 5 5 5 6 7 6 7 7 7 8 9 10 11 12 9 8 6 10 20 17 18 17 17 18 18 17 17
5 5 6 6 6 6 6 6 6 6 8 9 8 7 6 5 5 4 4 4 4 5 6 6 6 7 8 9 11 11 13 11 9 7 7 12 20 19 19 18 18 19 19 18 18
5 6 6 6 6 6 6 6 7 7 8 8 8 8 7 6 4 4 5 5 6 7 7 8 9 11 11 12 13 12 13 12 12 12 13 16 18 20 20 19 19 20 20 19 19
6 6 7 6 7 7 7 8 9 9 8 10 9 11 6 7 6 6 5 7 9 9 10 9 10 11 10 10 10 10 11 10 10 11 16 17 19 21 22 20 19 19 19 19 19
6 7 7 7 7 7 12 13 13 9 9 9 9 7 7 6 7 6 6 8 10 10 10 10 11 9 9 10 11 9 10 10 9 11 15 21 23 23 23 22 21 18 18 18 18
7 8 8 8 8 11 16 13 10 9 9 9 9 8 8 7 8 8 8 8 9 9 9 10 8 9 9 10 11 12 12 11 13 11 14 23 29 28 27 25 22 22 23 20 20
8 8 8 9 9 14 16 13 11 12 17 9 8 7 7 6 7 9 8 8 8 9 9 8 8 9 9 10 11 13 8 9 10 15 21 18 34 34 30 27 24 24 25 24 22
9 9 9 11 11 13 15 13 13 19 16 10 8 7 7 10 7 8 9 9 10 11 11 11 9 9 8 9 11 13 9 11 12 16 19 19 21 35 36 32 28 28 28 26 24
10 10 10 14 13 12 13 12 13 30 19 13 9 8 8 9 8 9 9 9 10 11 10 10 9 10 8 8 9 12 14 16 16 20 31 21 25 39 36 31 30 30 30 28 25
11 11 13 19 18 15 14 12 22 28 15 12 9 9 9 8 8 9 9 10 14 19 14 12 10 9 11 12 11 15 25 47 41 41 49 28 32 35 31 31 31 32 30 26 26
12 12 15 19 22 17 14 23 24 19 17 12 10 10 10 9 10 11 14 15 15 18 18 21 22 14 12 14 15 16 22 47 47 54 37 31 31 39 29 29 32 30 27 27 27
18 14 16 19 22 17 17 31 26 25 14 11 11 12 12 13 12 13 15 15 14 18 23 24 20 14 12 13 18 18 32 24 32 33 36 27 34 33 29 30 29 27 28 27 28
16 16 18 19 22 17 29 30 23 19 12 11 13 12 14 14 14 15 18 17 13 16 18 19 20 14 12 12 16 23 23 32 43 49 51 39 35 43 29 29 28 28 27 27 28
18 18 20 20 19 22 31 25 19 16 13 12 14 13 14 15 14 17 20 15 13 15 16 19 21 17 13 16 26 22 27 33 39 44 55 56 37 30 29 29 27 26 27 28 29
24 29 26 20 23 27 29 20 16 14 13 14 15 13 16 14 16 18 20 17 12 13 17 19 22 26 21 20 20 22 31 32 43 50 46 48 40 29 28 29 28 26 27 28 29
34 32 27 23 31 31 22 17 14 14 14 15 16 15 15 15 18 19 20 18 13 17 17 16 28 34 27 27 25 33 41 45 44 41 42 50 46 30 31 29 28 27 27 28 29
32 34 30 31 28 23 21 19 16 14 15 16 16 16 16 19 17 22 20 18 15 18 16 15 24 30 33 40 40 34 44 40 39 45 39 41 33 33 30 29 28 26 26 27 27
32 29 25 36 31 22 18 19 18 16 16 16 16 16 18 21 21 23 20 19 18 17 16 19 25 29 34 31 31 30 34 40 39 36 36 31 31 31 30 29 28 26 25 26 26
31 26 28 28 29 23 23 20 19 17 17 18 16 17 20 21 20 23 20 19 18 18 17 21 31 23 27 24 25 28 35 38 39 35 32 29 29 28 28 30 29 27 27 27 27
27 28 33 30 28 27 25 21 20 18 17 16 17 21 24 22 19 18 20 18 19 19 23 23 28 31 36 32 32 36 34 34 37 37 36 38 33 31 32 30 30 30 29 30 32